Regional Weather Roundup
Issued by NWS Grand Forks, ND

Home | Current Version | Previous Version | Text Only | Print | Product List | Glossary On
Versions: 1 2 3 4 5 6 7 8 9 10 11 12 13 14 15 16 17 18 19 20 21 22 23 24 25 26 27 28 29 30 31 32 33 34 35 36 37 38 39 40 41 42 43 44 45 46 47 48 49 50
000
ASUS43 KFGF 262231
RWRFGF
PRAIRIE TO PINES  WEATHER ROUNDUP
NATIONAL WEATHER SERVICE EASTERN NORTH DAKOTA/GRAND FORKS ND
500 PM CDT TUE SEP 26 2017

 **SATELLITE DATA USED TO AUGMENT SKY COVER AT AUTOMATED STATIONS**
 *****  WEATHER ACROSS EASTERN NORTH DAKOTA  *****

CITY           SKY/WX    TMP DP  RH WIND       PRES   REMARKS
GRAND FORKS    CLOUDY    52  47  83 NW12      30.08S
GRAND FRKS AFB CLOUDY    52  43  71 N8        30.09R
DEVILS LAKE    PTSUNNY   50  40  68 W7        30.11S
FARGO          CLOUDY    56  49  77 NW13      30.07R
WAHPETON ARPT  CLOUDY    52  46  82 NW13G18   30.09R
$$

 ***** WEATHER ACROSS CENTRAL AND WESTERN NORTH DAKOTA  *****

CITY           SKY/WX    TMP DP  RH WIND       PRES   REMARKS
BISMARCK       CLOUDY    58  44  60 SW5       30.12S
MINOT          CLOUDY    55  44  66 SW6       30.10S
JAMESTOWN      PTSUNNY   54  43  66 NW9       30.10S
MINOT AFB      CLOUDY    52  46  78 CALM      30.08S
GARRISON         N/A     54  44  69 SW8       30.11S
WILLISTON      FAIR      57  42  57 W7        30.10S
DICKINSON      CLOUDY    54  43  66 NW6       30.11R
HETTINGER      PTSUNNY   55  39  54 NW10      30.13R
$$

 *****  OTHER AIRPORT OBSERVATIONS IN OUR AREA  *****

CITY           SKY/WX    TMP DP  RH WIND       PRES   REMARKS
WALHALLA       FAIR     N/A N/A N/A NW7       30.09R
GRAFTON AIRPOR CLOUDY    50  48  93 NW12      30.10S
VALLEY CITY AR MOCLDY    54  43  66 NW10      30.11S
CANDO          CLOUDY    52  41  66 W6        30.12S
CAVALIER APRT  DRIZZLE   48  48 100 NW8       30.08S
GWINNER        CLOUDY    54  48  82 NW10      30.10S
SHEYENNE NWR     N/A     56  48  75 N7        29.95S
ROLLA          CLOUDY    50  43  76 SW8       30.10S
 ***** THE ABOVE OBSERVATIONS ARE NON NWS ARE NOT QUALITY
       CONTROLLED AND MAY MIS-REPORT RAIN FOR SNOW...
$$

  *****  WEATHER ACROSS NORTHERN MINNESOTA  *****

CITY           SKY/WX    TMP DP  RH WIND       PRES   REMARKS
FLAG ISLAND    DRIZZLE   48  46  93 N7        30.01R
WARROAD        RAIN      48  45  87 W9        30.04S
ROSEAU         RAIN      48  43  81 NW9       30.05S
HALLOCK        DRIZZLE   48  48 100 NW10      30.06F
THF RVR FALLS  LGT RAIN  49  47  93 NW9       30.07R
BAUDETTE       LGT RAIN  50  48  93 NW10      30.01S
WASKISH        DRIZZLE   48  48 100 NW10      30.01S
CROOKSTON      PTSUNNY   50  48  93 N10       30.08S
STEPHEN NDAWN    N/A     48  48 100 NW10        N/A
GREENBUSH NDAW   N/A     48  46  93 NW6         N/A
$$
  *****  WEATHER ACROSS CENTRAL AND WEST MINNESOTA  *****

CITY           SKY/WX    TMP DP  RH WIND       PRES   REMARKS
FOSSTON        CLOUDY    48  46  93 NW9       30.06S
BEMIDJI        CLOUDY    49  47  93 NW14G21   30.03R
PARK RAPIDS    LGT RAIN  53  49  86 NW13      30.03R
ELBOW LAKE     CLOUDY    54  48  80 NW8       30.07S
WADENA         DRIZZLE   52  46  82 NW8       30.04R
DETROIT LAKES  PTSUNNY   50  48  93 NW7       30.07R
MOORHEAD       CLOUDY    55  48  76 NW12      30.08S
FERGUS FALLS   CLOUDY    55  52  88 W12       30.07S
MORRIS MN      CLOUDY    57  48  72 NW13G18   30.08R
STAPLES        CLOUDY    55  46  71 W10       30.03R
$$
  *****  WEATHER ELSEWHERE ACROSS MINNESOTA  *****

CITY           SKY/WX    TMP DP  RH WIND       PRES   REMARKS
DULUTH         LGT RAIN  54  54 100 W12       29.94R FOG
INTRNTL FALLS  LGT RAIN  50  48  93 NW8       29.96S FOG
ELY            CLOUDY    52  52 100 W7        29.92R
CLOQUET        CLOUDY    55  52  88 W10G18    29.96R HAZE
WHEATON        CLOUDY    55  48  76 W8        30.10R
BRAINERD       CLOUDY    56  50  80 NW12      30.01R
HIBBING        CLOUDY    52  49  89 NW8       29.95R
ALEXANDRIA     CLOUDY    55  48  77 NW9       30.07R
SAINT CLOUD    CLOUDY    59  51  75 NW14      30.01S
MINNEAPOLIS    PTSUNNY   64  53  67 W15       30.00S
$$

  *****  WEATHER ACROSS SOUTH DAKOTA  *****

CITY           SKY/WX    TMP DP  RH WIND       PRES   REMARKS
SIOUX FALLS    FAIR      63  49  60 NW12G17   30.10F
BROOKINGS      PTSUNNY   57  47  69 NW14        N/A
WATERTOWN      PTSUNNY   57  47  69 NW9       30.09S
HURON          FAIR      64  46  52 NW7       30.10F
SISSETON         N/A     59  48  67 NW13      30.07S
ABERDEEN       PTSUNNY   59  45  59 NW6       30.10S
MITCHELL       CLOUDY    63  46  54 CALM      30.12S
PIERRE         FAIR      66  43  43 VRB5      30.08S
MOBRIDGE       PTSUNNY   61  46  57 S3        30.08S
RAPID CITY     PTSUNNY   63  39  42 N14       30.12S
$$

  *****  SOME WEATHER IN NEARBY STATES *****

CITY           SKY/WX    TMP DP  RH WIND       PRES   REMARKS
GLASGOW MT     FAIR      67  38  34 W8        30.06F
GREAT FALLS MT FAIR      68  34  28 MISG      30.14S
CHEYENNE WY    PTSUNNY   57  29  34 NE12      30.18F
SCOTTSBLUFF NE FAIR      66  33  29 W9        30.15S
OMAHA NE       PTSUNNY   63  51  65 N8        30.12S
DES MOINES IA  PTSUNNY   65  54  67 NW6       30.07R
DAVENPORT IA   CLOUDY    76  64  66 W15G23    29.99R
CHICAGO IL     PTSUNNY   90  58  33 W12G20    29.89S
EAU CLAIRE WI  CLOUDY    62  53  72 W10       29.98R
LA CROSSE WI   CLOUDY    67  56  67 W10       29.99R
$$

  *****  SOME NATIONAL WEATHER *****

CITY           SKY/WX    TMP DP  RH WIND       PRES   REMARKS
LA GUARDIA NY  MOCLDY    78  67  68 NE8       29.96F
RALEIGH NC     FAIR      82  69  64 NE15G24   29.87S
ATLANTA GA     FAIR      86  63  45 NW9       29.93S
NEW ORLEANS LA PTSUNNY   88  70  55 VRB3      29.85F HX  93
OKLAHOMA CITY  LGT RAIN  63  62  97 N15       30.01F FOG
ALBUQUERQUE NM PTSUNNY   72  46  39 E25G33    30.01F
SALT LAKE CITY PTSUNNY   65  35  33 NW10      30.11F
LOS ANGELES CA FAIR      77  60  55 SW13      29.77F
BOISE ID       FAIR      71  37  28 W8        30.13S
SEATTLE WA     FAIR      73  54  51 N9        30.15F
$$

*** WEATHER ACROSS MANITOBA...SASKATCHEWAN AND ONTARIO ***
                ***ONTARIO***

CITY           SKY/WX    TMP DP  RH WIND       PRES   REMARKS
GERALDTON      LGT RAIN  45  43  93 NE14      29.92F FOG
THUNDER BAY    LGT RAIN  54  52  94 N3        29.87S FOG
SIOUX LOOKOUT  LGT RAIN  46  46 100 CALM      29.97S
TORONTO        MOSUNNY   84  66  54 SE10      29.92R
BIG TROUT LK   MOSUNNY   50  39  66 NE5       30.09F
PICKLE LAKE    LGT RAIN  45  41  87 E9G17     30.00F
DRYDEN         LGT RAIN  48  46  93 N7        29.96F
KENORA         LGT RAIN  46  46 100 N7        30.00S
$$
                *** MANITOBA***

CITY           SKY/WX    TMP DP  RH WIND       PRES   REMARKS
BRANDON        CLOUDY    54  41  62 S6        30.08S
DAUPHIN        CLOUDY    55  41  58 S5        30.06R
ISLAND LAKE    NOT AVBL
PILOT MOUND      N/A     52  41  66 W6          N/A
THE PAS        PTSUNNY   61  36  39 S9        29.97F
THOMPSON       PTSUNNY   61  37  41 S8G17     29.96F
WINNIPEG       LGT RAIN  48  45  87 NW6       30.08S
LYNN LAKE      LGT RAIN  55  45  67 S9        29.85S
CHURCHILL      PTSUNNY   50  37  62 S17       29.95F
GILLAM         MOSUNNY   55  37  50 S8        30.02S
$$
                ***SASKATCHEWAN***

CITY           SKY/WX    TMP DP  RH WIND       PRES   REMARKS
ESTEVAN        PTSUNNY   57  41  54 W12       30.08S
KINDERSLEY     LGT RAIN  68  48  49 NW18G28   30.01
LLOYDMINSTER   PTSUNNY   64  45  48 NW12      29.98S
PRINCE ALBERT  PTSUNNY   61  45  55 SW5       29.96S
REGINA         PTSUNNY   66  36  32 SW14      30.01F
YORKTON        PTSUNNY   59  37  44 CALM      30.02F
N. BATTLEFORD  MOSUNNY   70  46  43 W12G20    29.97S
LA RONGE       PTSUNNY   63  50  63 VRB2      29.89R
SASKATOON      PTSUNNY   66  48  52 SW13      29.98S
SWIFT CURRENT  MOSUNNY   68  36  30 NW12G18   30.03S
$$
NOTE: THESE ARE AUTOMATED STATIONS WITH LIMITED QUALITY CONTROL
      "FAIR" INDICATES FEW OR NO CLOUDS BELOW 12,000 FEET WITH NO
      SIGNIFICANT WEATHER AND/OR OBSTRUCTIONS TO VISIBILITY.
      SKY/WX - SKY CONDITION AND SIGNIFICANT WEATHER.
      TMP - AIR TEMPERATURE.    DP   - DEWPOINT TEMPERATURE.
      RH  - RELATIVE HUMIDITY.  PRES - PRESSURE.
      HX  - HEAT INDEX.         WCI  - WIND CHILL INDEX.
$




USA.gov is the U.S. government's official web portal to all federal, state and local government web resources and services.